Theta_e
283 283 283 282 282 283 281 281 281 281 281 281 281 281 282 282 283 282 282 283 283 282 283 282 283 283 284 283 283 283 284 284 284 283 282 283 282 282 283 282 282 282
284 287 287 284 285 284 282 281 281 281 281 281 281 282 282 282 283 282 282 282 282 281 282 282 282 282 282 282 282 282 281 282 283 285 282 281 281 281 281 281 281 282
282 282 282 282 282 282 282 281 281 281 281 281 281 281 283 283 281 282 281 281 281 281 282 282 281 282 282 281 281 281 281 281 281 282 283 281 281 281 281 281 281 281
281 282 282 281 281 282 282 282 281 281 281 283 282 283 283 285 281 282 283 285 281 282 281 282 282 281 281 281 281 281 281 281 281 281 281 282 283 281 282 282 283 281
281 281 281 281 281 282 281 281 281 281 281 282 281 282 283 282 280 280 281 281 280 280 281 282 281 281 281 281 281 280 281 281 282 280 280 280 280 282 282 282 281 280
281 281 282 282 282 282 281 281 282 282 281 281 282 283 281 281 280 281 281 280 280 281 281 280 281 281 281 281 280 280 281 281 280 280 280 280 280 280 282 281 280 279
281 281 282 282 282 281 282 281 281 282 282 282 281 282 281 281 280 280 280 281 280 282 280 280 280 280 281 280 280 280 280 280 280 280 280 279 281 280 280 281 280 280
281 280 281 281 281 281 282 281 281 282 282 281 281 282 281 281 281 280 280 280 279 280 281 280 280 280 280 280 281 280 279 282 281 280 279 279 280 279 279 280 280 279
282 281 281 280 281 281 281 282 281 281 281 282 282 281 281 281 281 281 281 281 280 280 280 279 280 280 280 281 281 280 280 280 282 280 280 279 279 279 279 279 279 279
281 282 281 281 281 281 281 281 281 281 282 281 282 281 281 282 281 281 281 281 280 280 279 280 280 280 281 281 281 281 280 281 281 281 280 280 280 280 279 279 279 278
281 281 281 281 281 281 281 281 281 281 281 282 281 281 281 281 282 281 281 281 282 281 281 280 281 281 281 281 281 281 281 281 281 280 280 280 281 280 282 280 280 280
281 281 281 281 282 281 281 281 281 281 281 282 282 282 281 281 281 281 282 281 281 281 281 281 281 281 280 281 281 281 281 281 281 281 281 281 281 281 280 280 280 280
281 281 282 282 282 282 282 281 281 281 281 281 281 281 281 281 281 281 282 282 282 281 281 281 281 281 281 280 280 280 280 280 280 280 281 281 281 281 280 280 280 280
282 282 281 282 282 282 282 282 281 281 281 281 281 281 281 281 281 281 282 281 282 281 282 281 281 281 281 281 281 280 280 280 280 281 280 280 280 280 280 280 280 280
282 281 282 281 281 282 282 282 282 281 281 281 280 281 282 282 282 281 281 281 281 281 281 281 281 282 282 282 281 280 280 280 281 281 280 280 280 280 280 280 280 280
282 281 282 281 281 281 281 281 281 281 281 281 281 281 281 281 281 281 281 281 281 281 281 281 282 282 284 286 286 283 281 281 281 280 280 280 280 280 280 280 280 279
281 281 281 281 281 281 281 281 281 281 281 281 281 281 281 281 281 281 281 281 281 281 281 281 282 283 286 288 289 289 285 281 280 280 280 280 279 279 279 279 279 278
281 281 280 281 281 281 281 281 281 280 281 281 281 281 281 281 280 281 281 281 282 281 281 282 282 285 287 288 289 290 289 285 281 280 280 279 279 279 279 279 279 278
281 281 281 281 281 281 281 281 280 280 281 281 281 281 281 280 281 281 281 281 281 281 281 282 282 285 288 289 289 289 289 288 283 281 280 280 280 279 279 279 279 278
281 281 281 281 281 281 281 280 280 281 281 281 281 281 281 281 281 281 281 281 281 281 281 282 282 284 287 288 288 289 289 289 284 283 282 281 281 280 280 279 278 278
281 281 281 282 281 281 280 280 281 281 281 281 281 281 281 281 281 281 281 281 281 281 281 281 282 286 288 288 288 289 289 289 284 284 282 281 281 280 280 279 279 279
281 281 281 281 281 281 280 281 281 281 281 281 280 280 280 280 280 280 281 281 281 281 280 281 282 286 287 288 288 289 289 286 283 282 281 280 280 279 279 279 279 279
281 281 281 281 281 280 280 281 281 281 281 281 280 280 280 280 280 281 281 281 281 280 280 281 281 284 286 287 288 289 288 284 281 280 280 279 279 279 279 279 279 278
281 281 281 281 280 280 281 281 281 280 281 280 280 280 280 280 280 280 280 280 280 280 280 280 281 282 285 287 287 288 287 281 279 279 278 277 277 277 278 278 278 279
281 281 281 281 281 281 281 281 280 281 280 280 280 280 280 280 280 279 280 279 280 280 280 280 280 281 284 286 287 288 286 279 278 277 276 276 276 276 277 277 277 278
281 281 281 281 281 281 281 281 280 280 280 279 279 279 280 279 279 279 279 279 279 279 279 279 279 279 280 286 288 288 284 278 277 276 276 275 275 275 275 274 275 275
Wind_Speed
4 4 5 5 4 4 4 4 3 4 3 3 5 3 5 3 3 4 4 4 4 5 4 4 4 4 5 5 5 5 5 5 5 4 5 5 5 5 6 5 4 4
4 4 4 4 4 3 3 4 4 4 4 3 3 3 2 3 2 3 4 4 4 4 4 4 4 4 4 4 4 5 5 4 4 2 4 4 3 4 4 3 3 2
4 4 5 5 6 5 5 4 4 4 4 3 3 2 3 2 3 2 3 3 4 3 4 3 4 3 3 3 3 3 4 4 3 2 3 3 3 3 2 2 2 1
4 5 5 4 5 5 5 5 4 4 3 3 4 4 3 2 3 3 2 2 3 2 2 2 3 3 3 3 3 2 2 2 2 3 2 1 1 2 1 1 0 1
5 4 4 4 4 5 4 5 5 5 5 5 4 4 3 3 3 4 3 3 4 3 3 3 2 3 3 3 3 3 1 1 0 2 1 1 1 0 1 1 0 0
3 4 4 4 5 5 6 6 6 6 5 5 6 4 4 4 4 4 4 4 3 4 4 3 3 3 3 3 2 3 2 2 2 1 1 1 1 1 1 1 1 1
5 4 5 4 4 4 5 5 5 5 6 6 4 4 4 4 4 4 4 4 4 4 4 4 4 4 3 3 3 3 3 3 3 3 3 3 2 3 2 2 2 2
6 5 5 4 5 5 5 5 5 5 6 4 5 6 4 5 5 4 4 4 4 5 5 5 4 4 4 3 4 4 4 3 4 4 4 4 3 4 4 3 2 3
6 6 5 5 6 6 6 6 6 5 4 6 6 5 4 5 6 6 5 5 5 5 4 4 4 5 4 4 5 5 6 5 5 5 5 4 4 5 4 3 2 3
7 6 6 6 7 7 7 7 6 6 4 5 5 4 6 5 5 6 5 5 5 4 4 5 5 5 6 6 7 7 7 7 6 5 5 5 5 5 5 4 4 4
8 6 7 8 8 7 8 7 7 6 5 6 6 6 6 5 5 5 5 5 7 6 6 7 7 7 6 6 6 5 6 6 6 5 5 6 6 6 6 5 5 6
9 7 9 9 9 9 9 9 8 7 7 6 6 8 6 6 7 6 6 7 7 7 7 8 7 6 7 7 6 6 6 6 6 6 6 7 7 7 7 6 6 7
9 9 10 9 10 10 9 7 8 8 7 8 7 7 7 7 7 7 7 7 7 6 7 8 8 7 7 7 6 6 6 7 7 7 8 7 8 8 7 7 7 7
9 8 8 10 9 8 8 8 8 7 8 8 6 7 8 9 9 9 9 6 8 7 8 7 7 7 7 7 7 7 7 8 8 8 8 8 8 8 7 7 7 7
7 6 7 7 7 8 8 8 9 9 8 7 7 8 8 9 9 8 8 8 8 8 8 7 7 9 8 8 8 9 8 9 9 9 9 9 8 8 7 8 7 6
7 6 6 6 7 9 9 9 8 8 7 7 8 9 9 9 8 8 8 10 10 9 8 8 8 8 11 16 12 9 9 8 8 9 9 9 8 8 8 7 7 5
6 6 5 7 8 8 8 8 8 7 7 8 9 9 10 10 8 9 10 10 10 10 10 9 9 10 16 14 16 18 12 8 8 9 8 8 8 8 9 8 5 4
6 5 6 8 7 9 9 8 7 7 8 9 9 9 10 6 8 11 10 10 9 9 10 11 10 14 15 15 15 16 16 10 7 8 7 7 8 8 8 6 6 5
5 6 7 7 8 8 7 6 7 7 9 9 10 10 6 8 11 9 10 10 9 10 11 12 11 14 13 14 16 17 17 13 7 8 8 8 8 8 7 7 6 5
5 6 7 8 7 7 6 7 7 9 10 9 8 7 7 9 9 10 9 9 9 10 11 10 10 13 13 14 16 16 15 12 6 8 8 9 9 8 7 7 6 6
5 6 7 8 7 6 6 7 8 8 8 8 8 8 8 9 10 9 9 9 9 8 8 9 11 13 10 13 15 15 15 13 7 7 7 7 7 7 7 7 6 5
6 6 7 7 7 6 6 8 8 9 10 7 6 7 7 6 7 6 9 9 8 7 8 10 11 14 14 14 15 14 15 8 6 6 6 6 6 5 5 5 4 4
6 7 7 7 7 6 7 8 8 9 8 5 6 7 7 7 9 8 8 8 8 7 8 9 10 12 13 14 13 13 9 7 5 6 6 6 5 5 4 4 4 4
6 7 8 7 6 8 9 8 7 6 7 5 7 8 8 8 7 7 7 7 7 8 8 8 9 10 11 10 13 12 10 6 6 6 5 4 3 3 3 3 4 5
6 6 7 7 7 8 8 8 8 8 6 5 7 6 8 6 6 6 7 6 7 8 9 9 8 8 9 10 11 12 7 5 6 5 5 4 4 4 3 3 3 4
6 6 7 7 8 8 7 8 6 5 6 7 6 7 7 7 6 6 7 7 6 6 7 7 7 6 6 10 9 9 10 6 6 6 5 5 4 4 4 3 3 3
Wind_Direction
114 110 117 116 126 132 133 121 120 114 112 114 108 119 108 120 88 80 78 73 73 73 70 68 65 67 64 62 62 69 69 72 69 63 68 72 67 72 69 65 60 66
138 131 127 123 121 123 138 137 142 130 135 132 140 133 140 112 114 102 97 87 77 83 84 80 76 80 76 74 71 79 75 75 74 60 78 73 78 73 75 80 76 62
148 137 141 145 150 155 156 157 146 150 143 165 151 138 142 143 139 121 111 106 97 88 82 88 85 90 93 87 77 79 90 88 91 84 85 100 95 91 109 105 93 100
174 168 160 159 157 159 162 147 157 158 157 151 177 184 166 167 142 147 147 118 114 111 94 86 106 104 108 119 107 103 111 111 133 109 94 60 86 112 95 120 107 47
181 184 181 171 173 163 160 155 166 174 175 185 189 195 178 178 169 169 166 169 161 177 178 174 161 149 146 147 139 137 167 152 150 92 100 95 276 188 218 137 158 326
216 196 193 185 182 171 177 178 185 181 186 183 198 196 193 189 187 191 194 187 193 182 193 193 195 209 174 171 156 170 185 176 236 147 146 218 264 270 242 184 184 246
210 206 208 207 200 200 191 197 192 192 191 194 185 205 198 197 199 204 201 201 197 206 194 200 202 220 216 181 189 204 221 212 219 203 208 243 238 274 279 242 233 230
215 215 211 203 207 216 215 214 207 202 201 190 194 212 187 202 201 206 205 209 201 211 208 205 208 208 211 193 202 216 231 226 220 217 226 237 217 236 263 253 235 227
211 214 210 213 212 220 221 221 222 220 212 203 209 212 207 200 205 205 209 209 216 218 214 216 212 216 214 199 209 207 215 222 218 212 215 226 224 236 240 243 246 233
217 217 208 213 218 221 223 225 220 221 216 220 220 216 215 221 212 214 213 214 216 224 218 221 223 223 220 209 211 210 213 220 221 220 221 226 227 235 236 231 234 244
225 216 214 218 221 222 226 226 224 220 216 219 219 223 225 220 229 222 221 217 219 218 221 222 226 224 224 225 226 221 220 222 226 223 227 230 232 232 230 222 229 226
226 218 219 219 221 224 225 223 220 218 219 221 212 223 223 223 224 226 220 226 225 223 222 227 229 228 226 227 227 226 227 230 228 226 227 230 234 232 229 222 222 228
226 222 220 221 221 224 223 222 221 220 217 221 215 218 220 224 227 228 231 227 233 229 231 231 232 232 231 233 233 230 228 229 232 228 230 231 234 233 230 226 224 226
230 227 224 226 227 226 226 225 224 222 220 224 211 218 222 225 225 224 231 223 232 229 234 231 235 237 236 232 231 230 229 233 231 231 232 235 237 237 233 230 228 224
235 230 230 230 230 230 231 230 227 226 223 218 216 223 225 225 226 224 228 231 234 232 236 231 230 237 233 229 227 232 226 233 233 233 235 237 240 240 237 236 233 227
234 232 230 227 229 231 231 231 231 228 224 223 223 224 227 227 226 225 224 229 232 233 233 232 233 236 237 233 225 226 227 227 233 234 234 235 238 241 243 237 234 224
233 235 224 231 229 233 236 232 233 227 225 230 230 228 229 228 223 227 228 228 229 232 232 231 234 236 236 232 231 230 230 227 227 234 233 233 233 234 240 238 229 218
234 231 226 234 231 234 235 232 230 226 228 230 232 233 233 223 225 230 232 231 231 234 236 237 238 239 234 233 232 231 235 232 227 233 233 229 229 231 234 230 220 210
232 226 231 236 233 234 234 232 228 231 234 232 234 234 228 222 231 231 235 233 231 234 238 242 243 249 239 234 241 246 247 241 223 226 229 228 228 226 223 214 204 205
232 227 236 240 239 234 231 230 229 233 234 233 238 238 227 235 237 234 239 236 232 233 242 249 250 254 247 244 251 254 253 248 226 226 226 227 223 218 209 202 194 197
234 230 239 246 243 238 233 233 233 241 241 237 231 234 230 231 236 237 240 239 238 234 239 249 252 249 243 250 254 254 253 251 238 227 222 221 218 208 198 189 190 194
229 233 238 245 245 239 234 238 236 235 240 238 232 240 238 239 246 233 242 241 238 230 229 245 254 254 255 255 255 253 253 250 234 220 211 209 204 187 180 185 185 199
226 230 238 240 240 238 237 239 239 241 243 227 234 239 238 233 235 235 236 240 244 234 229 244 254 257 254 252 253 251 245 233 207 197 196 194 192 170 168 182 193 199
230 225 235 240 235 234 238 241 238 244 242 213 221 237 239 236 235 243 243 234 238 242 231 237 249 254 251 245 248 242 233 203 185 181 185 176 153 151 162 182 202 207
235 229 233 238 239 239 236 241 237 233 233 209 223 228 240 240 228 233 245 238 229 238 238 233 246 253 244 236 236 236 202 156 162 159 161 164 157 184 187 189 206 220
233 231 234 233 240 246 240 237 237 233 230 219 224 219 234 236 227 226 238 245 230 226 235 229 236 244 237 231 211 163 151 143 143 147 170 174 182 185 203 216 212 219